EHI
37 36 33 28 25 24 22 21 18 13 10 12 14 17 20 18 14 15 17 11 3 0 0 0 0 0 0 0 0 0 1 1 1 1 1 2 3 3
36 36 34 31 29 27 24 24 22 17 13 12 14 16 18 15 11 14 17 13 6 2 0 0 0 0 0 0 0 0 0 0 0 0 0 1 1 1
33 32 32 32 32 30 27 27 27 24 19 16 16 17 17 15 14 15 16 15 11 5 1 0 0 0 0 0 0 0 0 0 0 0 0 0 0 0
31 30 29 31 31 30 29 28 29 28 24 20 19 20 21 20 19 18 16 14 12 7 1 0 0 0 0 0 0 0 0 0 0 0 0 0 0 0
30 29 30 31 31 31 31 31 31 29 26 23 21 21 23 22 20 18 15 13 11 7 3 0 0 0 0 0 0 0 0 0 0 0 0 0 0 0
28 29 30 30 29 29 31 32 31 28 26 25 22 21 21 21 18 16 15 14 12 9 6 3 1 0 0 0 0 0 0 0 0 0 0 0 0 0
29 29 28 26 23 22 22 24 24 24 24 23 21 19 19 19 18 16 15 14 13 12 11 8 5 4 3 2 1 0 0 0 0 0 0 0 0 0
31 30 27 22 18 14 13 12 12 14 16 16 16 16 17 17 17 15 13 12 12 13 12 11 10 9 8 6 2 0 0 0 0 0 0 0 0 0
30 29 26 22 17 15 13 10 8 7 8 10 11 11 13 14 14 13 11 11 11 11 11 10 11 11 11 8 4 1 0 0 0 0 0 0 0 0
27 26 26 24 19 16 15 13 12 9 6 6 6 7 7 7 8 8 9 10 10 10 9 8 8 9 10 8 3 1 0 0 0 0 0 0 0 0
24 23 22 20 14 10 11 13 13 11 7 4 3 2 2 2 3 4 6 8 8 9 9 7 7 8 10 9 5 1 0 0 0 0 0 0 0 0
20 18 14 9 6 4 7 11 11 8 7 5 2 1 1 1 2 3 5 7 8 8 8 7 7 9 10 10 8 4 2 1 0 0 0 0 0 0
16 14 8 3 1 1 3 7 7 6 6 6 4 3 4 5 6 6 7 9 9 8 7 6 7 9 10 10 9 7 6 5 2 1 0 0 0 0
12 11 6 1 0 0 1 2 3 4 6 6 6 6 7 8 10 11 11 12 12 11 9 7 6 8 9 8 7 7 7 7 6 4 2 1 0 1
7 5 2 0 0 0 0 0 1 3 5 6 6 6 7 9 10 11 12 14 14 14 12 11 9 9 9 9 8 7 7 8 8 7 5 3 2 2
1 1 0 0 1 1 1 2 3 4 6 7 6 7 8 9 9 9 10 12 13 14 14 14 13 12 11 11 10 9 9 9 9 9 8 6 4 3
1 2 2 2 3 4 5 6 8 8 7 8 8 8 9 9 8 8 8 9 11 12 12 13 13 12 12 11 11 10 10 9 10 10 7 4 2 1
3 5 6 6 7 8 9 11 11 11 11 10 9 9 9 8 8 8 8 8 8 9 9 9 9 10 10 10 9 9 9 10 10 9 5 2 0 1
6 8 9 9 9 10 10 11 13 14 13 12 11 10 9 9 9 9 8 7 7 7 7 7 8 8 9 9 8 7 7 8 8 7 4 1 0 1
7 9 9 8 8 10 10 11 13 14 14 14 13 11 10 9 9 8 7 7 6 7 7 8 9 9 9 9 8 5 3 4 5 5 3 1 0 1
4 5 6 6 7 9 11 12 13 13 14 14 13 11 10 9 8 7 6 6 7 7 9 9 10 10 10 9 8 4 1 1 2 2 1 0 0 0
2 3 4 5 6 8 11 12 12 12 12 12 12 10 10 9 7 6 5 6 7 8 9 9 10 10 10 9 7 3 1 0 0 0 0 0 0 0
3 4 6 5 6 8 11 12 11 11 10 10 11 10 9 9 8 6 4 5 8 9 9 9 10 10 10 9 6 2 0 0 0 0 0 0 0 0
Wind_Speed
3 3 3 3 3 2 2 2 2 3 4 2 1 1 0 1 3 3 3 6 8 9 8 7 7 6 6 6 6 6 6 7 6 7 8 8 8 8
3 3 3 3 3 2 3 3 2 2 4 3 2 1 1 1 2 2 3 6 8 9 9 9 8 7 7 7 7 7 6 7 7 7 7 8 8 8
4 3 3 4 3 3 3 3 2 2 3 4 2 1 1 2 1 3 3 4 5 9 10 10 9 9 8 8 7 7 7 7 7 7 7 8 8 8
4 4 4 4 3 3 3 3 3 3 3 4 3 3 3 3 3 4 3 3 3 7 9 10 10 9 9 9 8 8 8 7 7 7 8 8 9 9
4 4 4 4 4 3 4 4 3 4 3 3 4 3 2 2 2 3 4 3 4 5 8 9 9 10 10 9 8 8 8 8 8 8 8 7 8 9
4 4 4 4 4 4 4 4 4 4 4 4 4 3 3 2 2 3 3 3 3 3 4 5 7 9 10 9 9 8 8 8 8 8 8 7 7 7
4 4 4 4 4 4 5 3 4 3 4 4 4 3 3 2 2 3 3 3 3 3 2 4 4 4 6 8 9 9 9 8 8 8 8 8 8 8
4 4 4 3 3 4 4 4 4 5 4 4 4 4 4 3 2 3 3 3 3 2 2 4 3 4 5 5 8 10 10 10 9 9 9 8 8 8
4 4 6 4 3 2 3 4 5 6 7 5 5 6 5 4 4 4 3 3 4 3 2 3 3 3 3 4 9 11 11 11 10 9 9 8 8 8
4 4 5 4 3 3 4 4 5 5 6 5 5 6 5 4 4 5 5 5 4 4 3 4 3 3 3 3 7 10 11 11 11 10 9 9 8 8
5 4 4 3 2 3 3 4 5 5 6 6 5 6 7 7 6 4 4 4 4 4 2 3 3 3 3 3 5 10 11 11 11 11 10 9 8 7
4 3 2 1 1 2 3 4 6 6 5 5 5 6 6 7 7 5 5 4 4 3 2 2 3 2 3 3 3 4 6 8 10 10 10 9 8 5
4 3 2 2 3 4 5 5 7 6 5 6 5 5 4 4 4 5 5 4 4 4 2 2 3 3 3 2 2 3 3 3 4 5 8 9 9 7
5 3 2 2 4 6 6 7 8 6 5 5 4 4 3 3 3 4 4 4 4 5 4 3 3 3 3 3 3 2 2 3 3 3 4 6 8 9
4 5 5 5 5 5 7 7 6 4 4 4 4 4 3 3 3 3 3 4 4 5 4 4 4 3 3 4 4 3 2 3 3 3 3 4 4 4
5 5 6 7 6 5 4 4 4 4 4 4 4 3 3 3 3 3 3 3 3 4 4 4 4 4 4 4 3 3 3 3 3 3 3 3 3 3
4 4 4 3 3 3 4 3 3 3 3 3 3 4 3 3 3 2 3 3 3 3 3 2 3 4 4 3 3 4 3 3 3 2 2 2 2 3
4 4 4 4 4 4 4 3 3 3 3 3 3 3 3 3 4 3 3 3 3 3 3 3 2 2 2 3 4 5 4 3 2 2 1 2 2 2
4 4 4 4 3 3 3 3 3 3 3 3 3 3 4 4 4 4 3 3 4 3 3 2 2 2 3 4 3 2 3 2 2 1 1 1 2 2
4 4 4 3 3 3 4 4 3 3 3 3 3 4 4 4 4 4 3 4 4 4 3 3 3 3 3 3 3 2 2 2 2 2 1 0 0 2
3 3 4 3 4 3 3 3 3 3 3 3 4 4 4 4 4 4 4 5 5 4 4 3 3 4 3 2 2 2 1 1 1 1 1 1 1 2
3 3 3 3 4 4 3 2 2 3 4 4 4 4 4 4 4 5 4 4 4 4 4 3 2 2 2 2 3 2 1 0 1 1 1 1 2 2
3 3 2 3 3 3 3 3 4 3 3 4 4 4 5 4 4 4 4 4 3 3 3 3 2 1 2 2 2 2 1 1 1 1 1 1 3 3
Wind_Direction
264 272 270 274 274 279 279 266 266 292 296 290 298 255 197 134 166 201 194 200 203 207 209 213 218 222 226 228 233 238 240 238 235 230 224 226 226 230
255 266 276 280 282 277 274 275 265 263 281 292 291 278 331 286 195 240 226 198 209 210 209 212 215 219 224 226 230 233 235 235 233 229 224 224 223 227
258 259 264 268 279 290 292 287 281 277 278 285 282 266 247 264 246 254 238 208 205 210 211 211 214 217 221 226 230 232 233 233 231 230 227 222 221 224
267 269 271 270 266 274 279 282 283 278 265 281 283 269 255 240 234 248 255 237 218 207 206 210 216 219 221 225 228 230 230 231 233 232 229 225 224 225
270 270 266 269 270 271 269 272 274 278 267 271 276 269 259 245 246 262 266 264 256 210 203 209 216 219 221 221 224 227 226 227 229 230 228 229 229 229
275 276 274 271 273 278 272 269 272 278 279 271 270 270 261 251 238 256 266 250 255 243 224 216 218 219 218 215 216 218 220 224 226 229 230 230 231 233
276 277 279 284 279 278 281 280 283 278 279 279 278 282 278 278 266 264 270 265 252 233 221 225 213 215 217 219 216 217 218 220 222 223 226 228 229 231
286 288 280 262 265 270 278 281 279 274 280 282 282 281 282 283 276 270 270 269 267 245 233 244 215 216 219 210 208 209 213 216 219 220 223 225 226 227
283 288 289 284 279 274 263 268 270 265 255 261 274 276 278 277 276 279 279 273 265 265 260 261 242 237 235 221 199 201 208 214 217 219 221 222 223 224
279 274 280 290 287 296 283 279 272 268 258 247 254 267 273 276 270 268 269 270 261 246 228 254 256 251 248 219 208 207 212 213 214 217 220 220 221 223
276 275 271 260 283 303 290 288 291 286 279 273 265 266 266 265 267 274 270 264 270 256 221 241 255 260 252 232 219 214 216 216 216 217 217 219 221 220
274 269 275 271 225 259 280 285 284 285 291 290 275 268 261 256 244 236 254 263 269 266 233 233 251 257 265 243 220 208 216 223 221 219 219 220 213 209
289 279 259 211 241 261 273 273 270 280 284 276 267 258 252 249 241 233 235 242 257 260 256 239 251 250 248 266 251 225 210 213 211 219 222 220 211 202
299 311 320 258 259 263 265 267 268 275 271 270 269 267 266 266 258 249 245 238 237 244 253 247 251 253 260 269 274 256 235 217 201 210 209 210 211 214
294 315 301 277 279 271 263 263 264 261 263 270 272 271 267 266 266 260 254 248 250 252 251 246 248 250 246 256 263 261 262 254 215 203 203 202 202 194
282 289 270 260 266 266 261 255 251 258 263 269 273 272 283 286 276 273 267 253 252 254 247 242 242 245 255 260 256 264 263 251 242 219 207 205 197 194
279 265 259 257 256 260 258 246 247 254 258 269 283 291 295 302 294 274 265 266 258 260 266 246 235 241 247 254 260 259 261 266 256 221 207 215 203 196
274 263 263 260 260 265 271 270 262 269 272 271 271 277 284 286 287 285 275 266 264 260 258 253 239 254 263 261 243 250 254 255 258 242 218 210 222 207
246 258 266 271 272 274 276 277 279 277 277 277 277 274 269 266 268 273 277 275 271 264 257 250 241 247 260 268 270 246 248 256 250 237 238 204 210 201
262 270 274 280 277 276 279 280 285 288 278 277 277 273 271 270 270 271 271 276 277 274 270 255 245 240 247 259 269 282 242 233 230 229 232 220 117 140
272 275 279 280 282 284 284 280 283 288 289 286 283 285 283 283 282 280 278 277 276 274 267 257 241 236 250 256 264 263 253 207 184 200 190 172 193 179
285 287 295 305 297 292 293 294 293 288 292 290 290 287 284 278 277 278 281 279 271 274 277 273 253 235 240 244 257 262 256 89 101 121 116 152 176 185
285 297 310 313 316 318 318 313 308 300 298 292 287 284 282 277 274 278 284 284 281 281 286 289 291 280 261 258 263 266 271 210 147 117 88 75 118 126